Jaipur, India

11:16 AM IST on May 23, 2017 (GMT +0530)
Jaipur

Weather History for VIJP - January, 2013

Change the Weather History Date:

Tuesday, January 29, 2013

  Actual Average Record
Temperature  
Mean Temperature 64 °F -  
Max Temperature 80 °F - - ()
Min Temperature 48 °F - - ()
Degree Days  
Heating Degree Days 1    
Growing Degree Days 14 (Base 50)    
Moisture  
Dew Point 37 °F    
Average Humidity 40    
Maximum Humidity 76    
Minimum Humidity 12    
Precipitation  
Precipitation 0.00 in - - ()
Sea Level Pressure  
Sea Level Pressure 30.03 in    
Wind  
Wind Speed 1 mph ()    
Max Wind Speed 8 mph    
Max Gust Speed -    
Visibility 1.7 miles    
Events      
T = Trace of Precipitation, MM = Missing Value Source: Averaged Metar Reports

Daily Weather History Graph

Daily Weather History Graph

Search for Another Location

Airport or City:

Trip Planner

Search our weather history database for the weather conditions in past years. The results will help you decide how hot, cold, wet, or windy it might be!

Date:

Astronomy

Jan. 29, 2013 Rise Set
Actual Time 7:13 AM IST 6:06 PM IST
Civil Twilight 6:49 AM IST 6:30 PM IST
Nautical Twilight 6:21 AM IST 6:58 PM IST
Astronomical Twilight 5:53 AM IST 7:26 PM IST
Moon 8:15 PM IST (1/29) 8:12 AM IST (1/29)
Length of Visible Light 11h 41m
Length of Day
10h 53m
Waning Gibbous, 96% of the Moon is Illuminated
Jan 29
Waning Gibbous
Feb 3
Last Quarter
Feb 10
New
Feb 18
First Quarter
Feb 26
Full

Hourly Weather History & Observations

Time (IST) Temp. Dew Point Humidity Pressure Visibility Wind Dir Wind Speed Gust Speed Precip Events Conditions
12:00 AM 57.2 °F 37.4 °F 48% 30.06 in 1.2 mi Calm Calm - N/A   Smoke
1:00 AM 55.4 °F 37.4 °F 51% 30.06 in 1.2 mi Calm Calm - N/A   Smoke
2:00 AM 53.6 °F 39.2 °F 58% 30.06 in 1.2 mi Calm Calm - N/A   Smoke
2:30 AM 55 °F 42 °F 50% 30.06 in 1 mi Calm Calm - -   Smoke
3:00 AM 53.6 °F 41.0 °F 62% 30.06 in 1.2 mi Calm Calm - N/A   Smoke
4:00 AM 51.8 °F 41.0 °F 67% 30.04 in 1.2 mi Calm Calm - N/A   Smoke
5:00 AM 51.8 °F 41.0 °F 67% 30.04 in 1.2 mi Calm Calm - N/A   Smoke
5:30 AM 52 °F 42 °F 58% 30.06 in 1 mi Calm Calm - -   Smoke
6:00 AM 50.0 °F 41.0 °F 71% 30.04 in 1.2 mi Calm Calm - N/A   Smoke
7:00 AM 48.2 °F 41.0 °F 76% 30.06 in 1.1 mi Calm Calm - N/A   Smoke
8:30 AM 55 °F 45 °F 60% 30.06 in 1 mi Calm Calm - -   Smoke
10:00 AM 68.0 °F 41.0 °F 37% 30.09 in 1.2 mi Variable 1.2 mph - N/A   Smoke
11:30 AM 73 °F 35 °F 15% 30.02 in 1 mi SW 2.3 mph - -   Haze
12:00 PM 73.4 °F 37.4 °F 27% 30.06 in 2.5 mi West 8.1 mph - N/A   Haze
1:00 PM 77.0 °F 33.8 °F 21% 30.04 in 2.5 mi WNW 6.9 mph - N/A   Haze
2:00 PM 77.0 °F 30.2 °F 18% 30.01 in 2.5 mi WNW 6.9 mph - N/A   Haze
2:30 PM 78 °F 35 °F 12% 29.96 in 2 mi NW 6.9 mph - -   Clear
3:00 PM 77.0 °F 28.4 °F 17% 30.01 in 3.7 mi Variable 5.8 mph - N/A   Unknown
3:30 PM 77.0 °F 28.4 °F 17% 30.01 in 3.7 mi Variable 6.9 mph - N/A   Unknown
4:00 PM 77.0 °F 28.4 °F 17% 30.01 in 3.7 mi Variable 6.9 mph - N/A   Unknown
5:00 PM 77.0 °F 32.0 °F 19% 30.01 in 3.7 mi Variable 4.6 mph - N/A   Unknown
5:30 PM 76 °F 37 °F 15% 29.95 in 2 mi 3.5 mph - -  
8:00 PM 68.0 °F 39.2 °F 35% 30.04 in 1.6 mi Variable 2.3 mph - N/A   Haze
8:30 PM 65 °F 40 °F 28% 29.99 in 1 mi Calm Calm - -   Smoke
9:00 PM 66.2 °F 37.4 °F 35% 30.04 in 1.2 mi Calm Calm - N/A   Haze
10:00 PM 60.8 °F 39.2 °F 45% 30.04 in 1.2 mi Calm Calm - N/A   Smoke
11:00 PM 59.0 °F 37.4 °F 45% 30.06 in 1.2 mi Calm Calm - N/A   Smoke
11:30 PM 58 °F 39 °F 37% 30.03 in 1 mi Calm Calm - -   Smoke